Location: Newark
(44.1667°N, 8.2500°E)
Time: 03:43:11
(UTC+00:00)

Altair - All Passes

Search period start: 12 December 2019 00:00
Search period end: 22 December 2019 00:00
Orbit: 1502 x 1682 km, 47.2° (Epoch: 10 December)

Date Brightness Start Highest point End Pass type
(mag) Time Alt. Az. Time Alt. Az. Time Alt. Az.
12 Dec - 00:38:58 10° WNW 00:48:19 88° NNE 00:57:32 10° ESE visible
12 Dec - 02:43:57 10° WNW 02:52:29 45° SW 03:01:01 10° SSE visible
12 Dec - 04:53:06 10° WSW 04:55:15 11° WSW 04:57:24 10° SW visible
12 Dec - 18:02:03 10° S 18:09:31 26° SE 18:16:48 10° E visible
12 Dec - 20:03:35 10° SW 20:13:07 70° SSE 20:22:20 10° ENE visible
12 Dec - 22:08:27 10° W 22:17:57 76° N 22:27:11 10° E visible
13 Dec - 00:13:47 10° WNW 00:23:09 85° NNE 00:32:22 10° ESE night (unlit)
13 Dec - 02:18:44 10° WNW 02:27:25 48° SW 02:36:04 10° SSE visible
13 Dec - 04:26:44 10° W 04:30:16 13° WSW 04:33:49 10° SSW visible
13 Dec - 17:37:20 10° S 17:44:29 24° SE 17:51:26 10° E visible
13 Dec - 19:38:27 10° SW 19:47:59 66° SSE 19:57:11 10° ENE visible
13 Dec - 21:43:12 10° W 21:52:45 77° N 22:02:01 10° ENE visible
13 Dec - 23:48:34 10° WNW 23:57:58 83° NNE 00:07:11 10° ESE night (unlit)
14 Dec - 01:53:32 10° WNW 02:02:20 51° SW 02:11:05 10° SE visible
14 Dec - 04:00:50 10° W 04:05:17 15° SW 04:09:44 10° SSW visible
14 Dec - 17:12:41 10° S 17:19:26 21° SE 17:26:02 10° E visible
14 Dec - 19:13:21 10° SW 19:22:51 62° SSE 19:32:01 10° ENE visible
14 Dec - 21:17:57 10° W 21:27:33 78° N 21:36:50 10° ENE visible
14 Dec - 23:23:21 10° WNW 23:32:47 81° NNE 23:42:00 10° ESE night (unlit)
15 Dec - 01:28:20 10° WNW 01:37:15 55° SW 01:46:05 10° SE visible
15 Dec - 03:35:08 10° W 03:40:17 16° SW 03:45:28 10° SSW visible
15 Dec - 16:48:06 10° SSE 16:54:24 19° SE 17:00:34 10° E visible
15 Dec - 18:48:15 10° SW 18:57:43 59° SE 19:06:51 10° ENE visible
15 Dec - 20:52:43 10° W 21:02:21 80° NNW 21:11:39 10° ENE visible
15 Dec - 22:58:08 10° WNW 23:07:36 79° NNE 23:16:49 10° E night (unlit)
16 Dec - 01:03:08 10° WNW 01:12:09 59° SW 01:21:04 10° SE night (unlit)
16 Dec - 03:09:33 10° W 03:15:18 19° SW 03:21:02 10° SSW visible
16 Dec - 16:23:36 10° SSE 16:29:23 17° SE 16:35:02 10° E visible
16 Dec - 18:23:10 10° SW 18:32:35 55° SE 18:41:40 10° ENE visible
16 Dec - 20:27:28 10° WSW 20:37:09 82° NNW 20:46:29 10° ENE visible
16 Dec - 22:32:55 10° WNW 22:42:24 78° N 22:51:38 10° E visible
17 Dec - 00:37:56 10° WNW 00:47:03 62° SSW 00:56:01 10° SE night (unlit)
17 Dec - 02:44:04 10° W 02:50:17 21° SW 02:56:31 10° S visible
17 Dec - 15:59:14 10° SSE 16:04:21 16° SE 16:09:24 10° E daylight
17 Dec - 17:58:07 10° SW 18:07:28 52° SE 18:16:30 10° ENE visible
17 Dec - 20:02:14 10° WSW 20:11:57 84° NNW 20:21:19 10° ENE visible
17 Dec - 22:07:41 10° WNW 22:17:12 77° N 22:26:26 10° E visible
18 Dec - 00:12:44 10° WNW 00:21:56 66° SSW 00:30:58 10° SE night (unlit)
18 Dec - 02:18:37 10° W 02:25:17 23° SW 02:31:54 10° S night (unlit)
18 Dec - 15:35:02 10° SSE 15:39:20 14° ESE 15:43:35 10° E daylight
18 Dec - 17:33:05 10° SSW 17:42:22 49° SE 17:51:19 10° ENE visible
18 Dec - 19:37:00 10° WSW 19:46:45 86° NNW 19:56:08 10° ENE visible
18 Dec - 21:42:27 10° W 21:52:00 76° N 22:01:15 10° E visible
18 Dec - 23:47:32 10° WNW 23:56:49 70° SSW 00:05:54 10° SE night (unlit)
19 Dec - 01:53:13 10° W 02:00:16 25° SW 02:07:15 10° S night (unlit)
19 Dec - 15:11:07 10° SE 15:14:20 12° ESE 15:17:31 10° ESE daylight
19 Dec - 17:08:05 10° SSW 17:17:15 45° SE 17:26:07 10° ENE visible
19 Dec - 19:11:46 10° WSW 19:21:33 88° NNW 19:30:59 10° ENE visible
19 Dec - 21:17:12 10° W 21:26:47 75° N 21:36:04 10° E visible
19 Dec - 23:22:20 10° WNW 23:31:41 74° SSW 23:40:48 10° SE night (unlit)
20 Dec - 01:27:52 10° WNW 01:35:14 28° SW 01:42:33 10° S night (unlit)
20 Dec - 14:48:08 10° SE 14:49:20 10° ESE 14:50:31 10° ESE daylight
20 Dec - 16:43:06 10° SSW 16:52:09 42° SE 17:00:55 10° ENE visible
20 Dec - 18:46:32 10° WSW 18:56:22 89° SSE 19:05:50 10° ENE visible
20 Dec - 20:51:57 10° W 21:01:35 74° N 21:10:52 10° E visible
20 Dec - 22:57:08 10° WNW 23:06:32 77° SSW 23:15:42 10° ESE night (unlit)
21 Dec - 01:02:33 10° WNW 01:10:13 30° SW 01:17:48 10° S night (unlit)
21 Dec - 16:18:09 10° SSW 16:27:04 39° SE 16:35:41 10° ENE visible
21 Dec - 18:21:20 10° WSW 18:31:11 86° SSE 18:40:40 10° ENE visible
21 Dec - 20:26:42 10° W 20:36:22 74° N 20:45:41 10° E visible
21 Dec - 22:31:56 10° WNW 22:41:24 81° SSW 22:50:36 10° ESE visible
